Location: Devargunta
(16.7631°N, 80.9077°E)
Time: 16:40:12
(UTC+00:00)

Cosmos 2098 Rocket - Pass Details

Date: 19 January 2021
Orbit: 366 x 1182 km, 82.9° (Epoch: 26 February)

Event Time Altitude Azimuth Distance (km) Brightness Sun altitude
Rises 13:47:10 0° 180° (S) 3,403 7.1 -19.4°
Reaches altitude 10° 13:49:24 10° 179° (S) 2,577 6.4 -19.9°
Maximum altitude 13:55:26 80° 93° (E) 1,051 4.0 -21.3°
Drops below altitude 10° 14:02:35 10° 7° (N) 3,030 6.3 -22.9°
Sets 14:05:23 0° 6° (N) 4,037 7.0 -23.6°
